Regional Weather Roundup
Issued by NWS

Home | Current Version | Previous Version | Text Only | Print | Product List | Glossary On
Versions: 1 2 3 4 5 6 7 8 9 10 11 12 13 14 15 16 17 18 19 20 21 22 23 24 25 26 27 28 29 30 31 32 33 34 35 36 37 38 39 40 41 42 43 44 45 46 47 48 49 50
000
ASUS45 KABQ 281310
RWRNM
WEATHER ROUNDUP FOR NEW MEXICO
NATIONAL WEATHER SERVICE ALBUQUERQUE NM
600 AM MST FRI NOV 28 2014

NOTE: "FAIR" MEANS FEW OR NO CLOUDS BELOW 12,000 FEET AGL WITH NO
       SIGNIFICANT WEATHER OR OBSTRUCTIONS TO VISION.

      THIS PRODUCT IS RELEASED AS TWO VERSIONS.  ONE VERSION NEAR
      THE TOP OF THE HOUR CONTAINING PRELIMINARY DATA FROM ALBUQUERQUE
      AND OTHER STATIONS.  A FINAL VERSION WITH ADDITIONAL DATA IS
      ISSUED ABOUT 10 MINUTES AFTER THE HOUR.

NMZ501-503-504-510>518-281400-
NORTHWEST PLATEAU/NORTHCENTRAL MOUNTAINS

CITY           SKY/WX    TMP DP  RH WIND       PRES   REMARKS
FARMINGTON     CLEAR     26  19  74 E9        30.26F WCI  17
LOS ALAMOS     CLEAR     37  19  46 CALM      30.31S
SANTA FE       PTCLDY    29  18  63 N9        30.28S WCI  20
TAOS           PTCLDY    19  16  86 N7        30.32R WCI  10
ANGEL FIRE     FAIR      15   9  75 CALM      30.32S

$$
NMZ402-403-502-505>509-281400-
WESTCENTRAL MOUNTAINS/SOUTHWEST MOUNTAINS

CITY           SKY/WX    TMP DP  RH WIND       PRES   REMARKS
GALLUP         CLOUDY    18   6  59 CALM      30.31R
GRANTS         PTCLDY    14   3  62 NW3       30.33R
SILVER CITY    PTCLDY    36  18  48 N10       30.28S WCI  28

$$
NMZ407-409-411-412-281400-
SOUTHERN DESERTS

CITY           SKY/WX    TMP DP  RH WIND       PRES   REMARKS
LORDSBURG      FAIR      28  19  69 CALM      30.24R
DEMING         MOCLDY    30  19  63 N3        30.24F
LAS CRUCES     PTCLDY    32  19  59 CALM      30.26R
HOLLOMAN AFB   PTCLDY    28  17  63 E5        30.25S WCI  23
ALAMOGORDO     PTCLDY    32  18  55 CALM      30.26S
T OR C         PTCLDY    37  19  48 NW6       30.25S WCI  32

$$
NMZ519>523-281400-
CENTRAL VALLEYS/CENTRAL HIGHLANDS

CITY           SKY/WX    TMP DP  RH WIND       PRES   REMARKS
ALBUQUERQUE    MOCLDY    32  19  58 E3        30.28S
DOUBLE EAGLE   CLEAR     23  12  63 CALM      30.29S
MORIARTY ARPT  FAIR      17  13  86 NE3       30.29S
CLINES CORNERS MOCLDY    39  18  42 NW18      30.24S WCI  30
BELEN          FAIR      25  15  66 NW5       30.29S WCI  19
SOCORRO        FAIR      30  18  61 NW8       30.28R WCI  23

$$
NMZ524>526-539-540-281400-
SOUTHCENTRAL MOUNTAINS

CITY           SKY/WX    TMP DP  RH WIND       PRES   REMARKS
RUIDOSO        CLEAR     39  10  30 W7        30.30S WCI  34

$$
NMZ527>531-281400-
NORTHEAST HIGHLANDS/NORTHEAST PLAINS

CITY           SKY/WX    TMP DP  RH WIND       PRES   REMARKS
LAS VEGAS      MOCLDY    42   7  23 NE5       30.22S
RATON          MOCLDY    29  17  61 CALM      30.16F
CLAYTON        MOCLDY    55  12  18 W20       30.06S

$$
NMZ532>537-281400-
EASTCENTRAL PLAINS

CITY           SKY/WX    TMP DP  RH WIND       PRES   REMARKS
TUCUMCARI      PTCLDY    43  22  43 NW3       30.09R
CANNON AFB     PTCLDY    39  26  58 W10       30.12F WCI  33
CLOVIS AIRPORT CLEAR     39  25  56 W16       30.11F WCI  30

$$
NMZ028-029-538-281400-
SOUTHEAST PLAINS

CITY           SKY/WX    TMP DP  RH WIND       PRES   REMARKS
ROSWELL        MOCLDY    31  25  78 W3        30.17F
CARLSBAD       PTCLDY    30  25  81 CALM      30.17R
HOBBS          CLEAR     32  30  93 S6        30.18F WCI  26


$$


USA.gov is the U.S. government's official web portal to all federal, state and local government web resources and services.